Hourly Data Report for July 27, 2021

TORONTO CITY
ONTARIO
Current Station Operator: ECCC - MSC

43°40'00.000" N
79°24'00.000" W
112.50 m
6158355
71508
XTO

Download Data

Hourly Data (July 2021)
Hourly Data Report for July 27, 2021
TIME
LST
Temp Definition
°C
Dew Point Definition
°C
Rel Hum Definition
%
Precip. Amount Definition
mm

Wind Dir Definition
10's deg

Wind Spd Definition
km/h
Visibility Definition
km
Stn Press Definition
kPa
Hmdx Definition


Wind Chill Definition


Weather Definition


00:00 21.2 15.5 70 0.0       100.07 25   LegendNANA
01:00 20.4 15.9 76 0.0       100.08 25   LegendNANA
02:00 20.0 15.8 77 0.0       100.09     LegendNANA
03:00 19.5 15.4 77 0.0       100.09     LegendNANA
04:00 19.0 15.5 80 0.0       100.05     LegendNANA
05:00 18.7 15.4 81 0.0       100.02     LegendNANA
06:00 20.0 16.0 78 0.0       99.99 25   LegendNANA
07:00 21.5 17.3 77 0.0       99.98 27   LegendNANA
08:00 21.6 17.0 75 0.0       100.09 27   LegendNANA
09:00 20.3 17.4 83 1.7       100.18 26   LegendNANA
10:00 20.1 16.5 80 0.4       99.96 25   LegendNANA
11:00 19.6 17.4 88 1.1       100.00     LegendNANA
12:00 21.0 18.3 85 0.0       100.09 27   LegendNANA
13:00 22.4 17.2 72 0.0       100.12 28   LegendNANA
14:00 23.8 17.4 67 0.0       100.07 29   LegendNANA
15:00 21.7 18.1 80 2.3       100.09 28   LegendNANA
16:00 22.3 20.4 89 3.4       100.09 30   LegendNANA
17:00 22.9 19.9 83 0.0       100.09 30   LegendNANA
18:00 23.1 19.9 82 0.0       100.10 31   LegendNANA
19:00 22.2 19.7 86 0.0       100.12 30   LegendNANA
20:00 21.3 19.3 89 0.0       100.17 28   LegendNANA
21:00 20.5 19.3 93 0.0       100.20 28   LegendNANA
22:00 20.0 17.7 87 0.0       100.24 26   LegendNANA
23:00 19.4 17.1 86 0.0       100.28     LegendNANA

Notes on Data Quality.

Legend

  • E = Estimated
  • M = Missing
  • NA = Not Available*
  • [empty] = Indicates an unobserved value
Date modified: